Location: Rounton
(54.4000°N, 1.3500°W)
Time: 22:36:24
(UTC+00:00)

Explorer 7 - Pass Details

Date: 04 December 2021
Orbit: 483 x 674 km, 50.3° (Epoch: 17 January)

Event Time Altitude Azimuth Distance (km) Brightness Sun altitude
Rises 10:11:27 0° 273° (W) 2,679 10.1 10.1°
Reaches altitude 10° 10:13:52 10° 264° (W) 1,756 9.3 10.2°
Maximum altitude 10:17:23 31° 201° (SSW) 909 8.7 10.5°
Drops below altitude 10° 10:20:46 10° 138° (SE) 1,685 11.0 10.6°
Sets 10:23:03 0° 128° (SE) 2,551 11.4 10.8°
